Showing default

INTELSAT 33E, 41748

Orbit data source: Space-Track

INTELSAT 33E, 41748 is a payload satellite owned by Intelsat SA (US) (US) in GEO that was launched on Wed, 24 Aug 2016 UTC via an ARIANE 5ECA launch vehicle from the French Guiana (FRGUI). Payload-class satellites include a variety of spacecraft equipped with specific instruments for various scientific and technological missions. These include communications satellites like Starlink; space stations such as the ISS; scientific satellites like the Hubble; Earth observation satellites from companies like Planet Labs, Umbra, and HawkEye 360; GPS; miniature CubeSats for education and research; and military/defense satellites.

Not visible in the next 10 days
Identifier
41748, 2016-053B
Orbit
GEO
Country
Flag of USUS / ITSO
Related business
Manufacturer
Boeing/ES
Mission
Non-operational Commercial Communications
Bus & Motor
BSS-702MP, LEROS-2B
Mass
6,552 kg wet, ~2,946 kg dry
Launch date (UTC)
2016-08-24 (10 years ago)
Launch vehicle
ARIANE 5ECA
Launch site
French Guiana (FRGUI)
Object type
Payload
Rocket body
Debris
Shape & HBR
Box + 2 Pan, 22.0 m
Radar Cross Section
59.953 m², Large (>1 m²)

Expand to show TLE details & history
Last TLE update: 8 hours ago

TLE from 8 hours ago
0 INTELSAT 33E
1 41748U 16053B   26121.14145553  .00000035  00000-0  00000-0 0  9997
2 41748   1.4547  84.8401 0023230 191.5844  58.2578  1.00164384 35778
Epoch: 2026-05-01T03:23Z
TLE epoch observation values (Epoch: 2026-05-01T03:23:41.757Z)
Latitude
-1.34443°
Longitude
64.89923°
Altitude
35,765.529 km
Speed
3.077 km/s
True Right ascension
22h 19m 36s
True Declination
-1° 20' 35"
Sunlit
Object was in daylight at epoch
Visualization orbit readout
Latitude
Unknown
Longitude
Unknown
Altitude
Unknown
Speed
Unknown
Apparent Right ascension
Unknown
Apparent Declination
Unknown
Sunlit
N/A
Visualization observer readout
Local Sidereal Time
19:20:52
Azimuth
Unknown
Elevation
Unknown
Doppler factor
Unknown
Orbital elements
Apogee altitude
35,915.82 km
Perigee altitude
35,719.778 km
Semi-major axis
42,195.936 km
Eccentricity
0.00232
Inclination
1.4547°
RAAN
84.8401°
Arg. of periapsis
191.5844°
True anomaly
58.48453°
Mean anomaly
58.2578°
Eccentric anomaly
58.37113°
Mean motion
0.2504 °/min
Orbital period
1,437.69 mins
BSTAR
0
Loading maneuver chart data...
Computing Atmospheric mass density...
Loading historical data...
Loading historical data...
Loading historical data...
Loading historical data...
Loading historical data...
Loading historical data...
Loading historical data...

Documentation

Showing up to 5 results
|